DW0774 Weather Reports


time (UTC)temp
C
wind
direction
speed
KPH
gust
KPH
rain 1hr
cm
rain 24hr
cm
rain mn
cm
humidity
%
barometer
mb
20260505153009 -2 100 6.4 12.9 0.00 0.94 0.13 94 1014.3
20260505151509 -2 103 4.8 11.3 0.00 0.94 0.13 94 1014.2
20260505124504 -2 51 0.0 11.3 0.00 0.94 0.13 95 1013.9
20260505123006 -2 36 3.2 8.0 0.00 0.94 0.13 95 1013.9
20260505121509 -2 45 0.0 8.0 0.00 0.94 0.13 94 1013.7
20260505120012 -2 52 0.0 6.4 0.00 0.94 0.13 94 1013.7
20260505114505 -2 46 1.6 9.7 0.00 0.94 0.13 95 1013.6
20260505113005 -1 31 1.6 4.8 0.00 0.94 0.13 95 1013.7
20260505111503 -1 135 0.0 11.3 0.00 0.94 0.13 95 1013.5
20260505101510 0 49 0.0 9.7 0.00 0.94 0.13 95 1013.3
20260505100008 0 46 0.0 3.2 0.00 0.94 0.13 95 1013.2
20260505094504 0 46 0.0 8.0 0.00 0.94 0.13 95 1013.2
20260505093014 0 65 9.7 16.1 0.03 0.94 0.13 95 1013.1
20260505091515 0 32 6.4 14.5 0.03 0.94 0.13 95 1013.1
20260505090009 0 32 1.6 9.7 0.03 0.94 0.13 95 1013.2
20260505084527 0 156 3.2 16.1 0.05 0.94 0.13 95 1013.3
20260505083008 0 43 0.0 8.0 0.08 0.91 0.10 94 1013.4
20260505081514 1 46 4.8 11.3 0.10 0.91 0.10 94 1013.5
20260505080020 1 146 4.8 11.3 0.10 0.91 0.10 95 1013.5
20260505074508 1 101 0.0 8.0 0.08 0.89 0.08 94 1013.7
20260505073015 2 89 4.8 14.5 0.03 0.84 0.03 95 1014.0
20260505071512 2 143 1.6 12.9 0.00 0.81 0.00 95 1014.0
20260505070006 2 155 8.0 17.7 0.00 0.81 0.00 95 1013.9
20260505064506 2 157 6.4 16.1 0.00 0.81 0.00 95 1014.0
20260505063030 2 164 4.8 12.9 0.00 0.81 0.00 95 1014.2
20260505061505 2 142 4.8 11.3 0.00 0.81 0.00 95 1014.2
20260505060004 2 134 1.6 8.0 0.00 0.81 0.00 95 1014.3
20260505054504 2 78 0.0 0.0 0.00 0.81 0.81 94 1014.4
20260505053009 2 78 0.0 0.0 0.00 0.81 0.81 94 1014.3
20260505051503 2 78 0.0 4.8 0.00 0.81 0.81 94 1014.3
20260505041504 2 147 4.8 14.5 0.00 0.81 0.81 94 1014.0
20260505040013 2 163 8.0 17.7 0.00 0.81 0.81 94 1014.0
20260505034512 2 130 8.0 14.5 0.00 0.81 0.81 94 1014.0
20260505033008 2 139 3.2 12.9 0.00 0.81 0.81 94 1014.2
20260505031504 2 118 0.0 6.4 0.00 0.81 0.81 94 1013.9
20260505030004 2 138 0.0 1.6 0.00 0.81 0.81 94 1013.8
20260505024503 2 157 0.0 3.2 0.03 0.81 0.81 94 1013.7
20260505023005 2 178 1.6 8.0 0.05 0.81 0.81 94 1013.6
20260505021512 2 142 6.4 16.1 0.05 0.81 0.81 94 1013.5
20260505020003 2 150 9.7 14.5 0.13 0.81 0.81 93 1013.4
20260505014508 2 307 6.4 14.5 0.15 0.79 0.79 93 1013.9
20260505013004 2 306 6.4 12.9 0.15 0.76 0.76 93 1014.0
20260505011543 2 288 3.2 12.9 0.25 0.76 0.76 93 1014.0
20260505010019 2 322 6.4 11.3 0.36 0.69 0.69 93 1014.1
20260505004512 2 360 9.7 17.7 0.46 0.64 0.64 92 1014.2
20260505003007 2 23 16.1 24.1 0.43 0.61 0.61 91 1014.2
20260505001510 2 17 8.0 29.0 0.33 0.51 0.51 90 1014.5
20260505000006 3 360 9.7 27.4 0.15 0.33 0.33 86 1014.4
20260504234528 5 5 25.7 40.2 0.00 0.18 0.18 79 1014.0
20260504233020 6 25 1.6 19.3 0.00 0.18 0.18 79 1013.6
20260504231508 6 95 11.3 19.3 0.03 0.18 0.18 78 1013.6
20260504230014 6 76 4.8 24.1 0.03 0.18 0.18 75 1013.5
20260504224513 7 137 9.7 20.9 0.03 0.18 0.18 77 1013.5
20260504223006 8 132 14.5 29.0 0.03 0.18 0.18 70 1013.3
20260504221519 8 340 1.6 14.5 0.00 0.15 0.15 58 1013.2
20260504220024 8 11 17.7 32.2 0.00 0.15 0.15 59 1012.5
20260504214510 8 5 16.1 38.6 0.00 0.15 0.15 58 1012.9
20260504213016 10 31 6.4 14.5 0.00 0.15 0.15 59 1012.9
20260504211512 9 5 1.6 14.5 0.00 0.15 0.15 57 1013.1
20260504210016 8 31 12.9 20.9 0.03 0.15 0.15 74 1013.4
20260504204525 7 321 14.5 29.0 0.08 0.15 0.15 70 1013.8
20260504203012 7 342 6.4 12.9 0.10 0.15 0.15 76 1013.7
20260504201503 6 340 8.0 20.9 0.13 0.15 0.15 79 1014.0
20260504200003 5 342 12.9 27.4 0.13 0.13 0.13 76 1014.1
20260504194519 5 284 12.9 25.7 0.08 0.08 0.08 76 1014.4
20260504193003 5 360 17.7 37.0 0.05 0.05 0.05 71 1014.3
20260504191508 7 303 22.5 41.8 0.03 0.03 0.03 56 1014.3
20260504190008 8 29 14.5 22.5 0.00 0.00 0.00 57 1014.2
20260504184504 7 17 19.3 29.0 0.00 0.00 0.00 63 1014.2
20260504183002 9 342 30.6 49.9 0.00 0.00 0.00 47 1014.6
20260504181518 12 329 14.5 29.0 0.00 0.00 0.00 37 1014.3
20260504180007 12 280 4.8 20.9 0.00 0.00 0.00 38 1014.4
20260504174512 12 202 4.8 33.8 0.00 0.00 0.00 38 1014.4
20260504173008 12 269 11.3 25.7 0.00 0.00 0.00 38 1014.6
20260504171534 11 201 12.9 30.6 0.00 0.00 0.00 40 1014.5